Regional Weather Roundup
Issued by NWS

Home | Current Version | Previous Version | Text Only | Print | Product List | Glossary On
Versions: 1 2 3 4 5 6 7 8 9 10 11 12 13 14 15 16 17 18 19 20 21 22 23 24 25 26 27 28 29 30 31 32 33 34 35 36 37 38 39 40 41 42 43 44 45 46 47 48 49 50
000
ASUS44 KFWD 241915
RWRTX
NORTH TEXAS HOURLY WEATHER ROUNDUP
NATIONAL WEATHER SERVICE FORT WORTH TX
200 PM CDT SUN MAY 24 2015

NOTE: "FAIR" INDICATES FEW OR NO CLOUDS BELOW 12,000 FEET WITH NO
SIGNIFICANT WEATHER AND/OR OBSTRUCTIONS TO VISIBILITY.

TXZ118-119-242000-
DALLAS/FORT WORTH METROPLEX

CITY           SKY/WX    TMP DP  RH WIND       PRES   REMARKS
DFW AIRPORT    LGT RAIN  71  66  84 S13       29.86F
DALLAS LOVE    CLOUDY    74  64  71 SW7       29.88F
FTW MEACHAM    LGT RAIN  70  65  84 S14       29.86F
DAL-EXECUTIVE  RAIN      71  66  84 SW6       29.90R
FTW-ALLIANCE   CLOUDY    72  65  78 S9G18     29.85F
FTW-NAS-JRB    CLOUDY    71  65  81 S10       29.87F
FTW-SPINKS     CLOUDY    70  64  83 SE8       29.89F
ARLINGTON      CLOUDY    72  63  73 S7        29.90R
GRAND PRAIRIE  LGT RAIN  72  66  83 SW12      29.91
ADDISON        MOSUNNY   75  66  73 S7        29.89F
MESQUITE         N/A     72  70  94 S7        29.90S
LANCASTER      RAIN      70  65  85 W7        29.91R
$$

TXZ091>094-102>105-117-120-121-131>134-242000-
NORTH CENTRAL TEXAS

CITY           SKY/WX    TMP DP  RH WIND       PRES   REMARKS
SHRMAN/DENISON CLOUDY    73  69  88 CALM      29.86F
GAINESVILLE    CLOUDY    71  65  81 S3        29.87F
BOWIE          CLOUDY    71  67  89 S8        29.86R
BRIDGEPORT     CLOUDY    71  67  86 SW9G16    29.88R
DECATUR        CLOUDY    68  65  88 SW7       29.87R
DENTON         CLOUDY    73  66  78 S15       29.85F
MCKINNEY       CLOUDY    75  66  73 SW10      29.87F
GREENVILLE     RAIN      73  68  83 SW10G16   29.89S
ROCKWALL       CLOUDY    73  68  87 SW8       29.87F
TERRELL        LGT RAIN  72  68  87 W9        29.90R
WAXAHACHIE     LGT RAIN  70  70  99 SW6       29.92S
CLEBURNE       CLOUDY    68  68 100 S5        29.91F
GRANBURY       CLOUDY    71  65  81 S7        29.90S
$$

TXZ083>090-098>101-113>116-127>130-139>142-154-155-242000-
WESTERN NORTH TEXAS

CITY           SKY/WX    TMP DP  RH WIND       PRES   REMARKS
WICHITA FALLS  CLOUDY    75  66  73 SE9       29.83F
WF-KICKAPOO    CLOUDY    76  66  71 SE12      29.85S
VERNON         CLOUDY    76  62  61 S9        29.84F
ABILENE        PTSUNNY   78  63  59 S14       29.87F
ABILENE-DYESS  MOSUNNY   79  59  50 S13       29.85F
BRECKENRIDGE   MOSUNNY   78  62  59 S15       29.86S
GRAHAM         PTSUNNY   75  66  72 S8        29.84S
MINERAL WELLS  CLOUDY    72  65  78 S14       29.85F
STEPHENVILLE   CLOUDY    68  62  82 SW5       29.93F
COMANCHE       CLOUDY    71  68  88 S9        29.92S
BROWNWOOD      MOSUNNY   73  63  68 SE14      29.90F
COLEMAN        PTSUNNY   75  66  73 S13G18    29.91S
BRADY          CLOUDY    73  64  73 S7        29.91F
$$

TXZ143>147-156>162-174-175-242000-
CENTRAL TEXAS

CITY           SKY/WX    TMP DP  RH WIND       PRES   REMARKS
WACO           CLOUDY    72  66  81 S5        29.92F
WACO-TSTC      CLOUDY    73  66  78 SW7       29.92S
WACO-MCGREGOR  CLOUDY    72  64  78 SW3       29.93S
HILLSBORO      CLOUDY    72  66  81 SW6       29.92F
CORSICANA      CLOUDY    75  67  76 SW12      29.93S
MEXIA          CLOUDY    73  68  83 MISG      29.92S
HEARNE         CLOUDY    78  70  78 S9G16     29.92S
CAMERON        CLOUDY    78  70  76 S13       29.91S
TEMPLE         CLOUDY    75  64  69 SE6       29.90F
KILLEEN        CLOUDY    73  66  79 VRB1      29.91F
KILLEEN-SKYLRK CLOUDY    75  64  69 S7        29.90F
FORT HOOD      CLOUDY    74  66  78 SE2       29.90F
GATESVILLE     CLOUDY    72  66  83 E3        29.94F
HAMILTON       CLOUDY    72  64  78 S8        29.93F
LAMPASAS       CLOUDY    73  67  81 SE5       29.91F
$$

TXZ095>097-106>112-122>126-135>138-148>153-164>167-242000-
EAST TEXAS

CITY           SKY/WX    TMP DP  RH WIND       PRES   REMARKS
PARIS          CLOUDY    70  64  83 W3        29.88S
SULPHUR SPRNGS CLOUDY    73  70  91 SW14G20   29.90S
MOUNT PLEASANT CLOUDY    75  68  79 S16G26    29.92R
GILMER         CLOUDY    74  67  81 S13G23    29.92R
MINEOLA        CLOUDY    75  70  83 S9G17     29.91R
TYLER          CLOUDY    75  67  76 S15       29.92R
LONGVIEW       CLOUDY    76  68  76 S18G28    29.92R
MARSHALL       CLOUDY    76  70  80 S15G23    29.96R
ATHENS         CLOUDY    73  68  83 S9        29.91S
PALESTINE      CLOUDY    74  69  87 S6        29.94R
JACKSONVILLE   CLOUDY    75  69  81 S12G18    29.95S
HENDERSON      CLOUDY    75  68  77 S10G18    29.95R
NACOGDOCHES    CLOUDY    73  68  83 S14       29.95S
LUFKIN         CLOUDY    76  69  79 S10       29.95S
$$

SUPPLEMENTAL OBSERVATIONS (CENTRAL)

CITY           SKY/WX    TMP DP  RH WIND       PRES   REMARKS
LAKE TEXOMA      N/A     72  66  83 S1          N/A
CADDO GRASSLND   N/A     72  66  83 E1          N/A
PAT MAYSE LAKE   N/A     66  64  94 N8          N/A
ATHENS           N/A     75  68  78 S9          N/A
MCGREGOR         N/A     73  66  78 S3          N/A
TEMPLE           N/A     75  68  78 S10         N/A
$$

SUPPLEMENTAL OBSERVATIONS (WEST)

CITY           SKY/WX    TMP DP  RH WIND       PRES   REMARKS
MILLERS CREEK    N/A     79  64  61 SW10        N/A
POSSUM KINGDOM   N/A     77  63  61 S12G20      N/A
LBJ GRASSLAND    N/A     72  66  83 SW6         N/A
GRANBURY         N/A     70  64  83 S8          N/A
HAMBY            N/A     81  63  54 S15         N/A
IVIE RESERVOIR   N/A     77  64  65 SE12        N/A
COLORADO BEND    N/A     73  66  78 S6          N/A
$$

SUPPLEMENTAL OBSERVATIONS (EAST)

CITY           SKY/WX    TMP DP  RH WIND       PRES   REMARKS
CLARKSVILLE      N/A     72  70  94 S9G25       N/A
TEXARKANA        N/A     73  68  83 S7G21       N/A
LINDEN           N/A     75  68  78 S6G20       N/A
CADDO LAKE       N/A     79  68  69 S5G15       N/A
GILMER           N/A     73  66  78 SW8G23      N/A
HENDERSON        N/A     75  66  73 S16G24      N/A
LUFKIN           N/A     75  68  78 MISG        N/A
N SABINE NF      N/A     73  70  88 MISG        N/A
S SABINE NF      N/A     72  68  88 CALM        N/A
$$

SUPPLEMENTAL OBSERVATIONS ARE A COLLECTION OF AUTOMATED INSTRUMENTS
THAT ARE MAINTAINED BY A VARIETY OF FEDERAL AND STATE AGENCIES.
CERTAIN ELEMENTS...SUCH AS HUMIDITY VALUES AND SUSTAINED WIND
SPEEDS...MAY BE APPROXIMATED.




USA.gov is the U.S. government's official web portal to all federal, state and local government web resources and services.